Vertical_Velocity
1 0 -0 -0 -1 0 0 -6 -0 -3 -2 -4 -6 -4 -3 0 1 0 1 1 1 0 0 1 1 1 1 -0 -1 -1 -1 -0 0 0 -0 0 0 0 0 0 -1 -1 -2 -1
0 0 -0 0 0 0 -0 -0 0 0 -2 0 4 2 1 0 -1 0 0 1 1 1 1 1 1 1 1 -0 -0 0 -0 -0 -0 -1 -1 -1 -1 -1 -0 -0 -0 -0 -1 -0
-1 -0 -0 1 -7 -2 -1 0 -5 -3 -10 -0 2 1 -2 0 -1 -2 -0 0 0 1 1 0 -0 -0 -1 -1 -0 -0 -0 -1 -1 -1 -0 -0 -1 -1 -1 -1 -1 -1 -1 -1
-0 1 2 -2 0 -0 -1 -1 0 0 0 -1 -1 5 2 1 -2 0 -0 -0 1 -1 0 0 0 -0 0 0 0 0 -0 -0 -0 0 0 0 -0 -1 -1 -1 -1 -0 -0 -1
1 -1 -6 2 -1 -3 -6 -8 -4 -3 2 2 2 -3 -0 3 1 3 1 -2 0 1 1 0 -1 -1 -0 -0 -1 -1 -2 -2 -2 -2 -2 -2 -2 -2 -1 -2 -1 0 0 0
1 2 -1 3 1 -0 -0 -3 -0 -3 -0 -2 1 3 2 -1 -1 -1 1 1 0 1 -0 -0 1 2 1 0 -0 -1 -0 -0 -0 0 -1 -1 -1 -2 -1 -1 -1 -0 -0 0
0 -0 -3 2 0 -1 4 -0 0 -1 -2 -2 -1 4 -1 -1 0 2 1 1 0 0 1 0 0 0 1 1 1 0 -1 -1 -1 -1 -1 -1 -1 -1 -1 -1 -1 -1 -2 -1
3 2 -4 -0 3 4 6 1 -1 2 0 2 -1 1 2 1 0 1 0 -0 1 1 1 1 -0 0 -1 -1 -2 -2 -1 -1 -1 -1 -1 -0 -1 -0 -1 -2 -2 -1 -2 -2
-0 -0 3 2 1 0 0 -1 3 0 2 0 -2 1 2 1 1 1 0 0 0 -0 -1 -1 -2 -2 -2 -2 -2 -2 -2 -2 -2 -2 -2 -2 -2 -1 -2 -0 -2 -2 -2 -3
3 4 2 1 1 1 2 -1 1 0 -1 -0 -4 1 1 0 0 0 0 0 0 0 -1 -1 -1 -1 -1 -2 -2 -2 -1 -1 -1 -1 -2 -0 -0 -1 -2 -2 -2 -2 -2 -3
2 2 1 1 1 1 2 1 0 3 2 2 0 1 0 -0 0 0 1 0 -1 -1 0 -1 -1 -1 -1 -1 -0 0 -0 -0 -0 -1 -1 -2 -1 -2 -2 -0 -0 -0 -1 -0
4 3 3 6 2 2 -0 1 1 1 -0 1 3 1 1 -1 -1 -1 -1 -1 -1 -1 -1 -0 -0 -1 -1 -1 -1 -1 -1 -2 -2 -3 -2 -2 -3 -4 1 -0 1 2 3 3
4 2 -0 1 2 3 0 1 1 1 2 0 -0 0 0 -0 -0 -1 -1 -0 -0 -1 -0 -0 0 0 1 0 -0 -1 -2 -2 -3 -3 -4 -3 -2 -2 -7 -0 -3 -2 -0 -0
2 4 1 2 2 3 -0 -0 1 -0 -0 -0 -0 -0 -1 -1 -1 -1 -0 0 1 1 1 0 -0 -2 -2 -2 -1 -1 -1 -0 -2 -2 -2 -2 -1 -1 -1 -3 -5 -5 -1 -2
0 1 0 -0 -0 -0 -0 -0 -0 -1 -0 -0 -0 -0 -0 -0 -0 -0 -0 -0 -0 -0 -1 -1 -1 -1 -2 -2 -3 -2 -3 -1 -1 -1 -0 -2 -1 -1 -1 -0 -0 -2 -4 -3
1 1 1 -0 -0 -0 0 -1 -0 -0 -0 -0 -1 -1 -0 -0 -0 -0 -0 -1 -1 -2 -2 -2 -2 -1 -1 -1 -1 -1 -1 0 -1 -2 -2 -3 -1 0 0 1 -0 3 0 -1
2 0 1 0 0 0 0 0 1 0 0 -0 -0 -1 -1 -1 -1 -1 -1 -2 -2 -2 -2 -2 -1 0 -1 -1 -2 -2 -2 -3 -1 -2 -1 -2 6 -3 -1 -0 -1 1 6 5
-0 0 1 0 0 0 0 0 -1 -1 -1 -1 -1 -1 -1 -1 -1 -2 -1 -2 -2 -2 -1 -2 -2 -2 -1 -2 -1 -1 -2 -2 -2 -2 -1 1 2 -4 1 1 0 0 2 2
-1 -1 -2 -1 -0 -1 -1 -2 -1 -1 -2 -1 -0 -1 -2 -1 -1 -1 -1 -3 -2 -4 -1 -3 -1 -1 -2 -1 -1 -1 -1 2 -3 1 -0 -0 -1 -1 -1 -1 -1 1 1 0
-1 -0 1 -1 -1 -1 1 0 -1 0 -2 -2 -1 -2 -2 -2 -4 -3 -3 -4 -2 -1 0 -1 -0 -1 -2 -1 -1 -1 -3 -1 -2 -1 -0 -1 -1 -2 -1 0 -1 -1 -0 0
2 -0 -1 -1 -1 -1 -1 -1 -1 -1 -2 -0 -1 -1 -1 -1 -0 -0 -2 -4 0 -2 -3 -2 -2 -3 -2 -2 -0 -2 -3 -1 -1 -0 -0 -0 -1 -1 -2 -2 -2 -2 -1 -1
-0 -0 -0 -0 -0 0 0 -0 -1 -1 -1 -1 -1 -1 -2 -2 -2 -2 -2 -4 -1 0 -1 -2 -3 -2 -2 -3 -0 -1 3 4 1 -1 0 0 -0 -1 -2 -2 -2 -2 -1 -1
-1 -1 -1 -1 -1 -1 -1 -1 -1 -1 -0 -0 -1 -2 -2 -1 -1 -2 -4 1 -2 -1 -3 -3 -2 -2 -1 10 4 3 1 -2 -2 -1 -0 0 -1 -2 -1 -1 -1 -2 -1 -1
-2 -2 -1 -1 -0 -1 -2 -0 -2 -1 -2 -2 -2 -1 -1 -3 -3 -2 -1 -1 -1 1 -1 -2 -4 -6 3 5 2 -0 2 -0 -0 -1 -2 0 -4 -3 -1 -0 0 0 -1 -0
-2 -1 -1 -1 -1 -1 -1 1 -2 -1 -2 -3 -2 -1 -0 1 -2 2 0 -3 -1 1 -3 0 -1 -4 3 2 -1 0 0 -1 -0 -0 -1 -3 -1 -0 -1 -1 -0 -0 -1 -1
-2 -2 -1 0 -1 0 0 -1 -4 -1 -0 -2 -2 0 -0 -1 -1 -1 -3 -0 -2 0 -2 -1 -2 -2 -1 -1 -2 -3 -3 -2 0 -1 3 -4 -2 -1 -1 -1 -1 -0 0 -1
-3 -1 -3 -5 0 -1 0 0 -1 -5 3 1 -5 4 -0 -1 -0 -0 0 -3 -1 1 1 -2 -3 1 2 1 0 2 1 -3 -2 -3 -1 3 2 -3 -2 -0 -1 -1 -1 -1
Height
1443 1446 1449 1449 1452 1459 1459 1447 1445 1442 1446 1450 1454 1459 1468 1472 1478 1483 1486 1489 1492 1495 1498 1501 1505 1508 1511 1513 1516 1518 1521 1523 1525 1527 1528 1530 1531 1532 1533 1534 1536 1537 1538 1539
1448 1454 1459 1454 1453 1454 1456 1451 1457 1462 1452 1451 1453 1461 1468 1471 1476 1481 1484 1488 1492 1495 1498 1501 1504 1507 1510 1512 1515 1517 1519 1521 1523 1524 1526 1527 1528 1529 1529 1530 1531 1532 1533 1534
1431 1454 1458 1452 1448 1446 1445 1444 1442 1452 1438 1449 1456 1457 1462 1468 1474 1478 1483 1487 1491 1494 1497 1500 1503 1506 1509 1511 1513 1515 1517 1519 1520 1521 1522 1523 1524 1524 1525 1526 1526 1527 1527 1528
1440 1458 1443 1428 1441 1439 1434 1437 1440 1442 1444 1446 1450 1456 1462 1468 1472 1477 1481 1485 1489 1493 1497 1500 1502 1505 1507 1509 1511 1513 1514 1516 1517 1518 1518 1519 1519 1520 1520 1520 1520 1521 1521 1521
1442 1439 1417 1424 1437 1438 1434 1424 1429 1435 1444 1448 1453 1459 1466 1468 1472 1476 1480 1483 1488 1492 1495 1498 1500 1503 1505 1507 1508 1509 1510 1511 1512 1512 1513 1513 1513 1514 1514 1514 1514 1514 1514 1514
1450 1431 1417 1419 1429 1432 1433 1421 1427 1431 1438 1445 1451 1452 1455 1464 1469 1474 1479 1483 1487 1491 1494 1496 1499 1500 1502 1504 1505 1506 1507 1507 1508 1508 1508 1508 1508 1508 1508 1508 1507 1507 1507 1507
1433 1429 1416 1427 1431 1433 1423 1424 1432 1434 1439 1445 1448 1452 1453 1461 1468 1474 1478 1483 1486 1489 1492 1494 1496 1498 1499 1501 1501 1502 1503 1503 1504 1503 1503 1503 1503 1503 1503 1502 1501 1500 1500 1500
1427 1434 1429 1431 1434 1430 1437 1436 1437 1438 1442 1447 1450 1454 1457 1463 1469 1473 1478 1482 1485 1488 1490 1492 1494 1495 1496 1497 1498 1498 1499 1499 1499 1499 1499 1498 1498 1498 1497 1496 1495 1495 1494 1493
1422 1422 1435 1436 1437 1438 1438 1439 1441 1442 1445 1448 1451 1456 1460 1464 1469 1474 1477 1481 1484 1486 1488 1490 1491 1493 1493 1494 1495 1495 1495 1495 1494 1494 1494 1493 1493 1492 1492 1492 1490 1490 1488 1487
1427 1435 1437 1439 1440 1441 1441 1442 1443 1446 1448 1451 1454 1459 1462 1466 1470 1474 1477 1480 1483 1485 1486 1488 1489 1490 1490 1491 1491 1491 1491 1491 1490 1490 1489 1488 1487 1486 1486 1485 1484 1484 1482 1481
1428 1439 1440 1442 1443 1444 1444 1446 1447 1450 1453 1456 1458 1461 1464 1467 1471 1474 1477 1480 1482 1483 1484 1485 1486 1487 1487 1487 1487 1487 1487 1486 1486 1485 1484 1483 1482 1481 1480 1480 1480 1479 1478 1477
1426 1443 1442 1444 1446 1447 1448 1449 1451 1452 1455 1458 1461 1463 1466 1468 1471 1474 1476 1478 1480 1481 1482 1483 1484 1484 1484 1484 1484 1484 1483 1482 1481 1480 1479 1478 1477 1475 1475 1474 1474 1473 1472 1471
1446 1446 1445 1447 1449 1450 1450 1451 1453 1455 1457 1459 1462 1465 1467 1469 1472 1474 1476 1477 1478 1479 1480 1481 1481 1481 1481 1480 1480 1479 1478 1478 1477 1476 1475 1474 1472 1470 1467 1467 1466 1465 1465 1464
1448 1449 1449 1450 1451 1452 1452 1453 1456 1458 1460 1462 1464 1466 1468 1470 1472 1474 1475 1476 1477 1478 1478 1478 1478 1477 1477 1477 1476 1475 1474 1474 1473 1472 1470 1469 1468 1466 1464 1461 1459 1457 1457 1457
1449 1448 1449 1451 1452 1454 1456 1457 1459 1461 1462 1464 1466 1467 1469 1470 1472 1473 1474 1474 1475 1475 1475 1475 1475 1474 1473 1473 1472 1471 1470 1469 1468 1467 1466 1465 1463 1461 1460 1458 1455 1453 1450 1449
1452 1452 1452 1453 1455 1457 1458 1460 1461 1462 1463 1465 1466 1467 1469 1470 1471 1471 1472 1472 1472 1471 1471 1471 1470 1470 1469 1468 1467 1466 1465 1464 1463 1462 1461 1460 1459 1457 1455 1453 1451 1449 1447 1446
1456 1457 1457 1457 1458 1459 1460 1461 1462 1463 1464 1465 1466 1467 1467 1468 1468 1468 1468 1468 1468 1467 1466 1465 1465 1464 1463 1463 1462 1461 1461 1459 1459 1457 1457 1456 1455 1452 1451 1449 1447 1446 1444 1442
1458 1459 1459 1460 1460 1461 1462 1462 1463 1464 1465 1465 1465 1465 1465 1465 1465 1465 1464 1464 1463 1462 1461 1460 1459 1459 1458 1458 1458 1457 1456 1456 1455 1454 1453 1452 1451 1449 1447 1445 1443 1442 1440 1438
1460 1461 1461 1461 1462 1462 1462 1462 1463 1463 1464 1464 1463 1463 1463 1462 1462 1461 1460 1459 1459 1457 1457 1455 1455 1454 1453 1453 1453 1453 1453 1453 1451 1451 1449 1449 1447 1445 1444 1442 1440 1439 1437 1436
1461 1462 1462 1462 1462 1462 1462 1462 1461 1461 1461 1461 1461 1460 1460 1459 1458 1457 1456 1454 1454 1453 1451 1451 1450 1448 1448 1447 1448 1448 1448 1448 1447 1447 1446 1445 1444 1443 1441 1440 1438 1437 1435 1434
1461 1461 1461 1461 1461 1460 1460 1460 1460 1459 1458 1458 1457 1456 1455 1455 1454 1452 1451 1449 1449 1447 1446 1445 1444 1444 1444 1443 1443 1443 1443 1444 1443 1442 1442 1441 1440 1439 1438 1436 1435 1433 1432 1431
1461 1460 1460 1459 1458 1458 1457 1457 1456 1456 1455 1454 1453 1452 1451 1451 1450 1448 1447 1445 1444 1443 1442 1440 1439 1439 1439 1439 1440 1439 1439 1439 1438 1438 1437 1437 1436 1435 1433 1432 1430 1428 1427 1426
1459 1458 1457 1456 1455 1454 1454 1453 1452 1451 1451 1450 1449 1449 1447 1446 1445 1444 1442 1442 1440 1438 1437 1436 1435 1436 1437 1436 1435 1435 1434 1434 1433 1433 1433 1432 1431 1430 1428 1426 1424 1423 1422 1422
1457 1456 1455 1453 1452 1451 1450 1449 1448 1448 1447 1446 1445 1444 1443 1441 1440 1439 1437 1436 1436 1435 1433 1431 1431 1431 1431 1430 1428 1428 1428 1428 1428 1428 1427 1427 1425 1424 1422 1420 1419 1418 1417 1416
1455 1453 1452 1450 1449 1447 1447 1446 1445 1444 1443 1441 1440 1439 1437 1436 1434 1433 1432 1430 1429 1429 1427 1426 1425 1425 1425 1422 1421 1421 1421 1421 1421 1421 1420 1420 1419 1417 1416 1415 1413 1413 1412 1411
1452 1450 1448 1447 1445 1444 1443 1442 1440 1440 1438 1436 1435 1433 1431 1429 1427 1426 1424 1424 1422 1421 1420 1419 1419 1418 1417 1416 1414 1414 1413 1414 1414 1413 1413 1411 1411 1410 1409 1409 1408 1407 1406 1406
1449 1447 1445 1443 1441 1439 1438 1436 1434 1432 1432 1430 1427 1426 1424 1422 1420 1418 1417 1415 1414 1413 1413 1412 1412 1412 1411 1409 1409 1408 1407 1405 1405 1404 1404 1404 1403 1402 1402 1402 1401 1401 1400 1399